[[{"header":{"parameterUnit":"m.s-1","parameterCategory":1,"la1":30.2991,"la2":30.254,"lo1":-89.0895,"lo2":-89.0444,"dy":0.0017,"dx":0.0017,"nx":28,"ny":28,"refTime":"2025-12-12T03:00:00:Z","depth":0,"parameterNumber":2,"parameterNumberName":"U-component_of_WINDS"},"data":[0,0,0,0,0,0,0,0,0,0,0,0,0,0,0,0,0,0,0,0,0,0,0,0,0,0,0,0,0,0,0,0,0,0,0,0,0,0,0,0,0,0,0,0,0,0,0,0,0,0,0,0,0,0,0,0,0,0,-0.3205,-0.3205,0,-0.3221,-0.3221,-0.3221,-0.3206,-0.3205,-0.3204,-0.3204,-0.3223,-0.3224,-0.3225,0,0,0,0,0,0,0,0,0,0,0,0,0,-0.3165,-0.3166,-0.3205,-0.3205,-0.3206,-0.3221,-0.3221,-0.3221,-0.3206,-0.3205,-0.3204,-0.3204,-0.3223,-0.3224,-0.3225,0,0,0,0,0,0,0,0,0,0,0,0,0,-0.3182,-0.3166,-0.3205,-0.32,-0.3199,-0.3221,-0.3221,-0.3222,-0.3206,-0.3205,-0.3204,-0.3203,-0.3222,-0.3224,-0.3226,-0.3255,0,0,-0.3231,-0.3231,0,0,0,0,0,0,0,0,-0.3181,-0.3184,-0.32,-0.32,-0.32,-0.321,-0.3214,-0.3233,-0.3206,-0.3203,-0.3204,-0.3203,-0.322,-0.3222,-0.3227,-0.3256,-0.3256,-0.3231,-0.3232,-0.3232,-0.3233,0,0,0,0,0,0,0,-0.318,-0.3183,-0.3212,-0.32,-0.32,-0.3198,-0.3199,-0.3218,-0.3217,-0.3204,-0.3203,-0.3204,-0.322,-0.3225,-0.3227,-0.3257,-0.3231,-0.3232,-0.3233,-0.3234,-0.3312,-0.3313,0,0,0,0,0,0,-0.3179,-0.3182,-0.3211,-0.3212,-0.3188,-0.3199,-0.3201,-0.3208,-0.3217,-0.3217,-0.3205,-0.3204,-0.3223,-0.3225,-0.3228,-0.3263,-0.3232,-0.3234,-0.3235,-0.3311,-0.3312,-0.3313,0,0,0,0,0,0,-0.3178,-0.3182,-0.321,-0.3197,-0.32,-0.3201,-0.3209,-0.3209,-0.3214,-0.3218,-0.3218,-0.3211,-0.3222,-0.3225,-0.3248,-0.3264,-0.3235,-0.3236,-0.331,-0.3311,-0.3313,-0.3334,0,0,0,0,0,0,-0.3177,-0.3182,-0.3192,-0.3197,-0.3201,-0.3229,-0.321,-0.321,-0.3217,-0.3215,-0.3223,-0.3224,-0.3222,-0.3246,-0.325,-0.3265,-0.3238,-0.3308,-0.331,-0.3312,-0.3332,-0.3336,-0.334,0,0,0,0,0,-0.3176,-0.3197,-0.3192,-0.3196,-0.3213,-0.323,-0.3233,-0.3229,-0.3218,-0.3229,-0.3231,-0.3223,-0.3261,-0.3248,-0.3253,-0.3269,-0.3307,-0.331,-0.3312,-0.333,-0.3335,-0.334,0,0,0,0,0,0,-0.3194,-0.3198,-0.3192,-0.3216,-0.3223,-0.3228,-0.3241,-0.3235,-0.3246,-0.3243,-0.324,-0.3242,-0.3266,-0.327,-0.3255,-0.3299,-0.3283,-0.3286,-0.3295,-0.33,-0.3304,-0.3303,-0.3239,0,0,0,0,0,-0.3201,-0.3213,-0.3216,-0.3237,-0.3241,-0.324,-0.3248,-0.3244,-0.3252,-0.3255,-0.3259,-0.3268,-0.3282,-0.3291,-0.3304,-0.3333,-0.3335,-0.3346,-0.335,-0.3353,-0.3357,-0.3373,-0.3379,-0.3321,-0.3321,-0.3321,0,0,-0.3215,-0.3219,-0.3227,-0.3241,-0.3246,-0.326,-0.3243,-0.3258,-0.3269,-0.3258,-0.3279,-0.3283,-0.3293,-0.3319,-0.333,-0.3323,-0.3373,-0.3357,-0.3359,-0.336,-0.3377,-0.3382,-0.3387,-0.3323,-0.3323,-0.3323,0,0,-0.3248,-0.3252,-0.327,-0.3275,-0.3283,-0.3283,-0.3287,-0.3293,-0.3295,-0.3316,-0.3308,-0.3322,-0.3346,-0.3354,-0.3361,-0.3398,-0.3392,-0.3403,-0.3423,-0.344,-0.3445,-0.3449,-0.3463,-0.3468,-0.3406,-0.3406,-0.3406,0,-0.3265,-0.3285,-0.328,-0.3296,-0.3303,-0.3293,-0.3312,-0.3318,-0.333,-0.3336,-0.3327,-0.3358,-0.3363,-0.3392,-0.3401,-0.3407,-0.3413,-0.3402,-0.3444,-0.3448,-0.3452,-0.3466,-0.3471,-0.3407,-0.3407,-0.3407,-0.3407,0,-0.3306,-0.332,-0.3334,-0.3345,-0.3354,-0.3372,-0.3371,-0.3381,-0.3377,-0.3379,-0.3402,-0.3408,-0.3423,-0.343,-0.3426,-0.3458,-0.3453,-0.3444,-0.3428,-0.3459,-0.3472,-0.3477,-0.3409,-0.3409,-0.3408,-0.3408,0,0,-0.335,-0.3359,-0.3364,-0.337,-0.3378,-0.339,-0.3408,-0.3422,-0.3431,-0.344,-0.3456,-0.3477,-0.3469,-0.3477,-0.3475,-0.349,-0.3521,-0.3479,-0.3479,-0.3487,-0.3558,-0.3565,-0.3571,-0.3517,-0.3518,-0.3518,-0.3557,0,-0.3384,-0.3414,-0.3411,-0.344,-0.3454,-0.3445,-0.3461,-0.3469,-0.3472,-0.3485,-0.3488,-0.3503,-0.3491,-0.3496,-0.351,-0.3514,-0.3535,-0.3511,-0.3533,-0.3534,-0.3531,-0.3577,-0.3584,-0.3621,-0.3562,-0.3563,-0.3564,0,-0.3427,-0.3437,-0.3468,-0.3475,-0.3481,-0.3495,-0.3508,-0.3521,-0.353,-0.3531,-0.3541,-0.3537,-0.3557,-0.354,-0.3569,-0.3553,-0.3562,-0.3566,-0.3567,-0.3569,-0.355,-0.3581,-0.3632,-0.3638,-0.3571,-0.3571,-0.357,0,-0.3457,-0.3479,-0.35,-0.3505,-0.3514,-0.3525,-0.3529,-0.3538,-0.3547,-0.3559,-0.3565,-0.3579,-0.3588,-0.36,-0.36,-0.3588,-0.363,-0.3613,-0.3632,-0.3632,-0.3641,-0.3641,-0.3695,-0.3647,-0.3647,-0.3646,-0.3646,0,-0.3496,-0.3515,-0.3514,-0.3527,-0.3549,-0.3546,-0.3568,-0.3572,-0.358,-0.3595,-0.3589,-0.3603,-0.3603,-0.3618,-0.3619,-0.3643,-0.3647,-0.3649,-0.3649,-0.365,-0.365,-0.3656,-0.3654,-0.3648,-0.3648,-0.3647,-0.3647,0,-0.3533,-0.3533,-0.3555,-0.3562,-0.3565,-0.3581,-0.3587,-0.3601,-0.3603,-0.3622,-0.3626,-0.363,-0.3648,-0.365,-0.3671,-0.3671,-0.3701,-0.3698,-0.3697,-0.3697,-0.3716,-0.3715,-0.3776,-0.3785,-0.3731,-0.3731,-0.3732,0,-0.3557,-0.3572,-0.358,-0.3589,-0.3594,-0.3609,-0.3618,-0.3617,-0.3627,-0.3639,-0.3652,-0.3669,-0.3682,-0.3712,-0.3717,-0.3734,-0.3731,-0.3752,-0.3734,-0.3735,-0.3733,-0.3732,-0.3734,-0.3756,-0.3756,-0.3757,-0.3757,0,-0.3601,-0.36,-0.3613,-0.3626,-0.3637,-0.3648,-0.3657,-0.3666,-0.3666,-0.3678,-0.3695,-0.3706,-0.3727,-0.3745,-0.3761,-0.3768,-0.3763,-0.3763,-0.3768,-0.3769,-0.3768,-0.377,-0.3708,-0.3761,-0.3761,-0.376,-0.376,-0.376,-0.3633,-0.3646,-0.3654,-0.3669,-0.3676,-0.3686,-0.3699,-0.3703,-0.3717,-0.3734,-0.3732,-0.3752,-0.3764,-0.3785,-0.3793,-0.381,-0.3803,-0.3811,-0.3813,-0.3815,-0.3817,-0.3765,-0.3813,-0.3813,-0.3812,-0.3812,-0.3812,0,-0.3676,-0.3682,-0.3695,-0.3709,-0.3721,-0.3715,-0.3726,-0.3737,-0.3754,-0.3765,-0.3778,-0.3799,-0.3817,-0.3824,-0.3842,-0.3854,-0.3852,-0.3859,-0.3858,-0.386,-0.3821,-0.3815,-0.386,-0.386,-0.386,-0.386,-0.386,-0.386,-0.3701,-0.3722,-0.3723,-0.375,-0.3755,-0.3774,-0.3781,-0.379,-0.3799,-0.3822,-0.3836,-0.3841,-0.3851,-0.3869,-0.3886,-0.3887,-0.3895,-0.3902,-0.3903,-0.3867,-0.3862,-0.3858,-0.3852,-0.3903,-0.3904,-0.394,-0.3941,-0.3941]},{"header":{"parameterUnit":"m.s-1","parameterCategory":1,"la1":30.2991,"la2":30.254,"lo1":-89.0895,"lo2":-89.0444,"dy":0.0017,"dx":0.0017,"nx":28,"ny":28,"refTime":"2025-12-12T03:00:00:Z","depth":0,"parameterNumber":3,"parameterNumberName":"V-component_of_WINDS"},"data":[0,0,0,0,0,0,0,0,0,0,0,0,0,0,0,0,0,0,0,0,0,0,0,0,0,0,0,0,0,0,0,0,0,0,0,0,0,0,0,0,0,0,0,0,0,0,0,0,0,0,0,0,0,0,0,0,0,0,-0.028,-0.0281,0,-0.0377,-0.0378,-0.0379,-0.04,-0.04,-0.0399,-0.0398,-0.0496,-0.0499,-0.0502,0,0,0,0,0,0,0,0,0,0,0,0,0,-0.011,-0.0113,-0.028,-0.0281,-0.0282,-0.0377,-0.0378,-0.0379,-0.0401,-0.04,-0.0399,-0.0398,-0.0494,-0.0498,-0.0502,0,0,0,0,0,0,0,0,0,0,0,0,0,-0.0193,-0.0114,-0.0279,-0.0304,-0.0307,-0.0377,-0.0378,-0.038,-0.0401,-0.04,-0.0399,-0.0398,-0.0493,-0.0498,-0.0503,-0.0553,0,0,-0.0517,-0.052,0,0,0,0,0,0,0,0,-0.0188,-0.0199,-0.0299,-0.0303,-0.0306,-0.0376,-0.0354,-0.0438,-0.0401,-0.0365,-0.0398,-0.0397,-0.0456,-0.0464,-0.0485,-0.0558,-0.0562,-0.0518,-0.0521,-0.0523,-0.0524,0,0,0,0,0,0,0,-0.0182,-0.0195,-0.0318,-0.0301,-0.0305,-0.0309,-0.032,-0.037,-0.0415,-0.0368,-0.037,-0.0381,-0.0458,-0.048,-0.0487,-0.0564,-0.0518,-0.0522,-0.0525,-0.0527,-0.0683,-0.0684,0,0,0,0,0,0,-0.0173,-0.019,-0.0315,-0.0321,-0.0243,-0.0313,-0.0325,-0.0354,-0.0415,-0.0423,-0.0382,-0.0382,-0.0472,-0.0481,-0.049,-0.0554,-0.0523,-0.0527,-0.053,-0.0682,-0.0684,-0.0685,0,0,0,0,0,0,-0.0169,-0.0184,-0.0311,-0.0256,-0.0273,-0.0317,-0.035,-0.0357,-0.0379,-0.0425,-0.0433,-0.0396,-0.0472,-0.0484,-0.0538,-0.0558,-0.053,-0.0534,-0.0681,-0.0682,-0.0684,-0.0682,0,0,0,0,0,0,-0.0164,-0.0182,-0.0203,-0.0256,-0.0276,-0.0358,-0.0351,-0.0359,-0.0387,-0.0388,-0.0441,-0.0449,-0.0472,-0.053,-0.0543,-0.0564,-0.0538,-0.0679,-0.0681,-0.0684,-0.068,-0.0683,-0.0686,0,0,0,0,0,-0.0158,-0.0198,-0.0204,-0.0218,-0.0302,-0.0359,-0.037,-0.0396,-0.0389,-0.0409,-0.0439,-0.0447,-0.0553,-0.0536,-0.055,-0.0573,-0.0678,-0.0681,-0.0683,-0.0679,-0.0683,-0.0686,0,0,0,0,0,0,-0.0144,-0.0205,-0.0212,-0.0271,-0.031,-0.0362,-0.0389,-0.0399,-0.044,-0.0439,-0.0469,-0.0481,-0.0533,-0.0558,-0.0538,-0.0625,-0.0615,-0.0621,-0.0607,-0.0611,-0.0614,-0.0607,-0.0542,0,0,0,0,0,-0.0148,-0.019,-0.024,-0.0287,-0.0306,-0.0344,-0.037,-0.0387,-0.0428,-0.0444,-0.0478,-0.0517,-0.0559,-0.0586,-0.0628,-0.0684,-0.0695,-0.0706,-0.0709,-0.0711,-0.0716,-0.0747,-0.0753,-0.0694,-0.0694,-0.0694,0,0,-0.0157,-0.0195,-0.0219,-0.0285,-0.0317,-0.0359,-0.0358,-0.0402,-0.0433,-0.0451,-0.0504,-0.053,-0.0575,-0.0631,-0.0657,-0.0653,-0.0735,-0.0715,-0.0716,-0.072,-0.0751,-0.0756,-0.0761,-0.0696,-0.0696,-0.0695,0,0,-0.0194,-0.0227,-0.027,-0.0302,-0.035,-0.0375,-0.0385,-0.0437,-0.0455,-0.0509,-0.0523,-0.056,-0.0632,-0.0663,-0.0689,-0.0737,-0.0745,-0.0749,-0.0764,-0.0795,-0.0799,-0.0804,-0.0821,-0.0827,-0.0754,-0.0754,-0.0754,0,-0.0198,-0.0263,-0.029,-0.0334,-0.0362,-0.038,-0.0424,-0.0453,-0.0512,-0.0531,-0.0526,-0.0617,-0.0648,-0.0712,-0.0723,-0.0743,-0.0755,-0.0744,-0.0797,-0.0801,-0.0805,-0.0823,-0.0829,-0.0754,-0.0754,-0.0754,-0.0754,0,-0.0265,-0.031,-0.0338,-0.0396,-0.0427,-0.047,-0.0504,-0.0532,-0.0546,-0.0571,-0.0626,-0.0664,-0.0714,-0.0729,-0.0743,-0.0794,-0.0791,-0.0791,-0.0782,-0.0811,-0.0827,-0.0834,-0.0754,-0.0754,-0.0754,-0.0754,0,0,-0.0298,-0.037,-0.038,-0.0406,-0.0461,-0.0495,-0.0538,-0.0588,-0.0611,-0.0651,-0.0688,-0.0748,-0.0749,-0.0778,-0.0795,-0.0821,-0.0857,-0.0818,-0.082,-0.0825,-0.0916,-0.0916,-0.0923,-0.0863,-0.0864,-0.0865,-0.0912,0,-0.0342,-0.0422,-0.0447,-0.0513,-0.0554,-0.0571,-0.0609,-0.0646,-0.067,-0.0708,-0.0734,-0.0777,-0.0774,-0.0791,-0.0818,-0.0847,-0.0876,-0.0844,-0.0897,-0.0899,-0.0886,-0.0932,-0.0933,-0.0976,-0.0919,-0.092,-0.0921,0,-0.0405,-0.0447,-0.0517,-0.0566,-0.0584,-0.0618,-0.0665,-0.07,-0.0742,-0.0758,-0.079,-0.0805,-0.085,-0.0837,-0.09,-0.0877,-0.09,-0.0918,-0.092,-0.0927,-0.0912,-0.0941,-0.099,-0.0997,-0.0931,-0.093,-0.093,0,-0.0422,-0.0496,-0.0547,-0.0569,-0.0627,-0.0651,-0.0676,-0.0717,-0.0745,-0.0785,-0.0803,-0.0848,-0.0873,-0.0906,-0.0933,-0.0921,-0.0993,-0.0982,-0.1007,-0.1006,-0.1022,-0.1021,-0.1077,-0.1035,-0.1035,-0.1035,-0.1035,0,-0.047,-0.0512,-0.0556,-0.0588,-0.0635,-0.0664,-0.071,-0.0736,-0.0772,-0.0808,-0.0825,-0.0859,-0.0891,-0.0929,-0.0949,-0.0998,-0.1008,-0.1022,-0.1027,-0.1021,-0.102,-0.1038,-0.1036,-0.1037,-0.1036,-0.1036,-0.1036,0,-0.0498,-0.0529,-0.0586,-0.0637,-0.065,-0.0683,-0.0726,-0.0757,-0.0782,-0.0828,-0.084,-0.0878,-0.0923,-0.0953,-0.101,-0.1024,-0.1077,-0.1081,-0.1063,-0.1066,-0.1089,-0.1087,-0.1159,-0.117,-0.112,-0.1121,-0.1121,0,-0.0526,-0.056,-0.0614,-0.064,-0.0665,-0.0707,-0.0735,-0.0764,-0.0793,-0.0843,-0.0867,-0.0914,-0.0953,-0.1024,-0.1056,-0.11,-0.1105,-0.1128,-0.1112,-0.1105,-0.1107,-0.1105,-0.1108,-0.113,-0.1131,-0.1131,-0.1131,0,-0.0574,-0.0588,-0.0629,-0.0675,-0.0709,-0.0746,-0.0784,-0.0804,-0.0839,-0.087,-0.0917,-0.0947,-0.1006,-0.1051,-0.1098,-0.1123,-0.1133,-0.1136,-0.1144,-0.1139,-0.1128,-0.1135,-0.1071,-0.1134,-0.1134,-0.1134,-0.1134,-0.1134,-0.0604,-0.0634,-0.0677,-0.0722,-0.0753,-0.0788,-0.082,-0.0848,-0.0888,-0.0939,-0.0953,-0.1001,-0.1041,-0.1105,-0.1131,-0.1169,-0.1166,-0.1178,-0.1181,-0.1184,-0.1184,-0.1121,-0.1177,-0.1177,-0.1177,-0.1177,-0.1177,0,-0.0653,-0.0682,-0.0723,-0.0775,-0.081,-0.0817,-0.0858,-0.0887,-0.093,-0.0967,-0.1005,-0.1058,-0.1103,-0.1138,-0.1183,-0.1207,-0.1213,-0.1218,-0.1217,-0.1223,-0.1184,-0.1173,-0.1213,-0.1213,-0.1213,-0.1213,-0.1213,-0.1213,-0.0683,-0.0735,-0.0753,-0.082,-0.0848,-0.0897,-0.092,-0.0952,-0.0981,-0.1041,-0.1078,-0.1101,-0.1137,-0.1185,-0.1226,-0.1235,-0.1251,-0.1256,-0.1266,-0.1229,-0.1225,-0.1222,-0.1211,-0.1259,-0.1259,-0.1302,-0.1302,-0.1302]}]]